sat.trackr.live / text

‹ back to catalog

STARLINK-32198

NORAD 60321 · 2024-133W

PAYLOAD ACTIVE UNKNOWN

§ Identity

Operator
Country
US
Launch date
2024-07-28
Launch site
AFWTR
Launch vehicle
Mass (kg)
RCS (m²)

Purposes: comms

External: N2YO · Heavens-Above · Gunter

§ Orbital elements

Epoch: 2026-05-25T03:09:55.806624Z

Period
94.11 min
Inclination
53.1616°
Eccentricity
0.0001071
Mean motion
15.30186334 rev/d
Perigee alt
474.5 km
Apogee alt
476.0 km
Semi-major
6,853.4 km
B*
-9.8733e-6
RAAN
302.0171°
Arg perigee
82.1204°
Mean anomaly
277.9918°
Rev number
10,343

§ Raw data

STARLINK-321981 60321U 24133W   26145.13189591 -.00000651  00000+0 -98733-5 0  99982 60321  53.1616 302.0171 0001071  82.1204 277.9918 15.30186334103434

JSON: /api/v1/satellites/60321 · /tle

For live sub-satellite position, see the globe view (requires WebGL).

§ Visibility from observer

Set your observer location to see the next 7 days of passes ≥ 10°. The values pass through the URL so the page stays shareable.

No JS? Fill the form by hand. The geolocation button needs JavaScript.